Regional Weather Roundup
Issued by NWS Austin/San Antonio, TX

Home | Current Version | Previous Version | Text Only | Print | Product List | Glossary On
Versions: 1 2 3 4 5 6 7 8 9 10 11 12 13 14 15 16 17 18 19 20 21 22 23 24 25 26 27 28 29 30 31 32 33 34 35 36 37 38 39 40 41 42 43 44 45 46 47 48 49 50
000
ASUS44 KEWX 211110
RWREWX
SOUTH TEXAS REGIONAL WEATHER ROUNDUP
NATIONAL WEATHER SERVICE AUSTIN/SAN ANTONIO TX
600 AM CDT WED AUG 21 2019

NOTE: "FAIR" INDICATED FEW OR NO CLOUDS BELOW 12,000 FEET WITH NO
SIGNIFICANT WEATHER AND/OR OBSTRUCTIONS TO VISIBILITY.

* - THESE STATIONS ARE NOT NWS OR FAA STATIONS...AND ARE NOT SUBJECT
    TO NWS AND FAA QUALITY CONTROL.

TXZ171-172-183>190-211200-
TEXAS HILL COUNTRY AND EDWARDS PLATEAU

CITY           SKY/WX    TMP DP  RH WIND       PRES   REMARKS
JUNCTION       CLEAR     77  67  71 SE5       30.06S
*LLANO         CLEAR     73  66  78 CALM      30.06R
BURNET         CLEAR     78  69  73 S5        30.05S
*HORSESHOE BAY CLEAR     75  68  78 CALM      30.04R
*KERRVILLE     MOCLDY    74  69  84 CALM      30.07S
*FREDERICKSBRG CLEAR     73  65  75 CALM      30.06F
*ROCKSPRINGS   CLEAR     73  66  78 S9        30.12S
*BOERNE        CLOUDY    73  72  94 SW6       30.06S
*CASTROVILLE   CLOUDY    78  70  77 CALM      30.04S
HONDO          MOCLDY    74  69  85 E6        30.03S
*UVALDE        CLEAR     73  68  86 E6        30.03S
DEL RIO        CLEAR     81  69  67 E7        29.98S
LAUGHLIN AFB   CLEAR     78  69  73 E8        29.99S
SPOFFORD       CLEAR     78  68  72 E8        29.94S
*EAGLE PASS    CLEAR     79  68  69 E5        29.99R
CARRIZO SPRGS  CLEAR     77  70  78 E5        29.97R
$$

TXZ173-191>194-202-209-217>225-228-211200-
CENTRAL AND SOUTH CENTRAL TEXAS

CITY           SKY/WX    TMP DP  RH WIND       PRES   REMARKS
GEORGETOWN     CLEAR     79  73  82 S10       30.03S
AUSTIN/BERGSTM PTCLDY    78  74  87 SE3       30.01S
AUSTIN/MABRY   PTCLDY    79  72  79 VRB3      30.02S
*AUSTIN/EXEC   PTCLDY    75  73  94 S5        30.02S
*LAGO VISTA    CLEAR     76  72  86 S5        30.04S
SAN MARCOS     MOCLDY    77  74  90 S3        30.03R
NEW BRAUNFELS  CLEAR     76  72  87 CALM      30.00F
RANDOLPH AFB   MOCLDY    79  73  83 SW3       30.02S
SEGUIN         CLEAR     75  74  97 CALM      30.05S
KELLY FIELD    PTCLDY    78  73  85 S5        30.01S
SAN ANTONIO    CLOUDY    79  72  79 S7        30.03S
STINSON FIELD  CLOUDY    80  73  79 CALM      30.00S
PLEASANTON     CLEAR     73  71  92 CALM      30.01S
*LA GRANGE     CLEAR     77  77 100 CALM      29.99S
*GIDDINGS      PTCLDY    78  77  94 CALM      30.02S
*GONZALES      PTCLDY    76  76  98 CALM      30.01R
$$

TXZ163>164-176>182-195>201-210>213-226-227-235-211200-
SOUTHEAST TEXAS

CITY           SKY/WX    TMP DP  RH WIND       PRES   REMARKS
COLLEGE STN    PTCLDY    77  75  93 S3        30.01S
*BRYAN         CLEAR     79  79 100 S3        30.02R
*CALDWELL      PTCLDY    76  74  95 S3        30.02R
*CROCKETT      CLEAR     73  73 100 CALM      30.04R FOG
*BRENHAM       PTCLDY    76  76 100 S3        30.01S
HUNTSVILLE     CLEAR     78  74  87 S5        30.01S
CONROE         CLEAR     74  72  93 CALM      30.01S
HOUSTON BUSH   MOCLDY    77  75  93 S3        29.99F
HOUSTON HOBBY  FAIR      79  75  87 S3        29.99S
*HOUSTON SW AP FAIR      74  74 100 CALM      30.01S
PEARLAND       FAIR      79  75  87 CALM      30.01S
HOUSTON HOOKS  FAIR      76  73  91 S3        30.00S
ELLINGTON FLD  PTCLDY    79  75  89 S5        29.98S
SUGAR LAND     FAIR      76  76 100 CALM      29.99S
*HOUSTON EXEC  MOCLDY    77  77 100 CALM      30.02R
*CLEVELAND MUN FAIR      74  74 100 CALM      30.01S FOG
*WHARTON       CLEAR     74  72  96 CALM      30.01S FOG
*COLUMBUS      FAIR      73  69  85 CALM      30.02S
*EAGLE LAKE    CLEAR     76  76  97 CALM      30.00
$$

TXZ214>216-236>238-211200-
THE UPPER TEXAS COAST

CITY           SKY/WX    TMP DP  RH WIND       PRES   REMARKS
*ORANGE        FAIR      77  77 100 CALM      30.01R FOG
PORT ARTHUR    FAIR      78  77  96 CALM      29.99S
GALVESTON      FAIR      84  77  79 S7        30.00R HX  94
ANGLETON       FAIR      75  73  93 CALM      30.00R
*BAY CITY      CLEAR     77  77  98 CALM      30.00R
PALACIOS       PTCLDY    85  75  72 S7        29.99R HX  93
$$

TXZ229>234-239>247-211200-
TEXAS COASTAL BEND AND RIO GRANDE PLAINS

CITY           SKY/WX    TMP DP  RH WIND       PRES   REMARKS
VICTORIA       MOCLDY    76  73  91 CALM      30.00R
*BEEVILLE      NOT AVBL
ROCKPORT       PTCLDY    82  75  79 S3        29.98R
*PORT ARANSAS  CLEAR     83  78  83 SE6       29.99S HX  93
*PORT LAVACA   CLEAR     79  76  90 CALM      29.99S
*INGLESIDE     NOT AVBL
CORPUS CHRISTI MOCLDY    77  75  93 CALM      29.98R
CORPUS NAS     PTCLDY    81  79  94 S6        29.97R HX  90
*ROBSTOWN      CLEAR     76  73  90 CALM      29.98S
ALICE          PTCLDY    73  72  96 CALM      29.98R
KINGSVILLE NAS CLEAR     75  72  90 CALM      29.97S
COTULLA        CLEAR     78  74  87 E7        29.99R
LAREDO         CLEAR     79  74  84 SE7       29.97S
$$

TXZ248>255-211200-
DEEP SOUTH TEXAS

CITY           SKY/WX    TMP DP  RH WIND       PRES   REMARKS
BROWNSVILLE    FAIR      80  78  94 E5        29.95F
PORT ISABEL    FAIR      80  75  84 SE5       29.95F
HARLINGEN      CLEAR     76  75  97 E3        29.95F
*HEBBRONVILLE  CLEAR     75  73  92 CALM      30.00S
MCALLEN        CLEAR     80  75  84 E6        29.96F
*WESLACO       CLOUDY    78  73  86 CALM      29.96
FALFURRIAS     PTCLDY    77  74  89 E5        29.98S
EDINBURG       FAIR      77  73  88 CALM      29.98R
*ZAPATA        FAIR      79  72  77 E6        29.97F
$$

TXZ213>215-236>238-242>244-246-247-251-254-255-211200-
CMAN STATIONS

STATION/POSITION TIME  TEMP    WIND        PRES    WAVE
                       AIR SEA DIR/SP/G            HT/PER
                 (UTC) (F)     (DEG/KT/KT) (MB)    (FT/S)
SABINE PASS      1024   81 89  190/  5/  5 1017.1
NORTH JETTY/GLS  1024   86 87  160/  9/ 10 1014.6
EAGLE POINT      1024   85 87  170/  7/  9 1014.9
MORGANS POINT    1030   84 88  200/  3/  8 1015.7
PORT O`CONNOR    1024   84 87  170/ 11/ 12 1014.9
PORT ARANSAS     1100   83 86  140/  7/  8 1015.1
MALAQUITE BEACH  1024   82 85  140/  6/  8 1014.5
BAFFIN BAY       1024   82 87  130/  7/  9 1014.8
PORT ISABEL      1024   82 85  150/  5/  7 1014.7
$$



USA.gov is the U.S. government's official web portal to all federal, state and local government web resources and services.